QFA55 PAFA-PADQ

Flight info

Callsign QFA55
Flight time 1h 19m
Altitude 33000
Route MKNLY4 TKA T381 BGQ Q43 TED J125 ODK
Aircraft B738/M-SDE2E3FGHIRWXY/LB1

Departure

Time 2026-05-05 10:19
Airport Fairbanks International Airport (PAFA)

Arrival

Time 2026-05-05 11:39
Airport Kodiak Airport (PADQ)
Time Latitude Longitude Altitude Speed Heading
2026-05-05 10:02 64.81645 -147.86850 443 ft 0 kts 359°
2026-05-05 10:11 64.81623 -147.86862 442 ft 3 kts 14°
2026-05-05 10:11 64.81600 -147.86876 442 ft 3 kts 14°
2026-05-05 10:12 64.81576 -147.86889 442 ft 3 kts 14°
2026-05-05 10:12 64.81558 -147.86906 442 ft 2 kts 69°
2026-05-05 10:12 64.81564 -147.86950 442 ft 3 kts 121°
2026-05-05 10:12 64.81565 -147.86954 442 ft 0 kts 121°
2026-05-05 10:14 64.81565 -147.86952 442 ft 1 kts 121°
2026-05-05 10:14 64.81556 -147.86924 442 ft 7 kts 127°
2026-05-05 10:14 64.81517 -147.86808 442 ft 10 kts 129°
2026-05-05 10:14 64.81460 -147.86743 442 ft 11 kts 186°
2026-05-05 10:15 64.81383 -147.86856 442 ft 13 kts 218°
2026-05-05 10:15 64.81317 -147.86974 442 ft 12 kts 217°
2026-05-05 10:15 64.81247 -147.87101 442 ft 13 kts 218°
2026-05-05 10:15 64.81161 -147.87261 442 ft 19 kts 218°
2026-05-05 10:16 64.81041 -147.87484 442 ft 25 kts 218°
2026-05-05 10:16 64.80904 -147.87734 442 ft 25 kts 218°
2026-05-05 10:16 64.80766 -147.87985 442 ft 25 kts 218°
2026-05-05 10:16 64.80629 -147.88236 442 ft 25 kts 218°
2026-05-05 10:17 64.80492 -147.88488 442 ft 25 kts 218°
2026-05-05 10:17 64.80433 -147.88596 442 ft 1 kts 217°
2026-05-05 10:17 64.80416 -147.88626 442 ft 6 kts 217°
2026-05-05 10:17 64.80369 -147.88702 442 ft 9 kts 200°
2026-05-05 10:18 64.80312 -147.88672 442 ft 11 kts 136°
2026-05-05 10:18 64.80293 -147.88540 442 ft 8 kts 50°
2026-05-05 10:18 64.80418 -147.88298 443 ft 50 kts 37°
2026-05-05 10:18 64.80851 -147.87511 443 ft 106 kts 38°
2026-05-05 10:19 64.81561 -147.86203 443 ft 152 kts 38°
2026-05-05 10:19 64.82155 -147.85102 498 ft 172 kts 38°
2026-05-05 10:19 64.83045 -147.83379 1188 ft 163 kts 41°
2026-05-05 10:19 64.83791 -147.81278 1680 ft 174 kts 53°
2026-05-05 10:20 64.84534 -147.78963 2210 ft 181 kts 47°
2026-05-05 10:20 64.85677 -147.77580 2646 ft 194 kts
2026-05-05 10:20 64.86946 -147.78627 3182 ft 204 kts 316°
2026-05-05 10:20 64.87542 -147.81713 3657 ft 221 kts 273°
2026-05-05 10:21 64.87277 -147.85340 4218 ft 231 kts 245°
2026-05-05 10:21 64.86361 -147.88608 4648 ft 250 kts 226°
2026-05-05 10:21 64.85114 -147.91607 5213 ft 264 kts 222°
2026-05-05 10:21 64.83755 -147.94564 6022 ft 264 kts 219°
2026-05-05 10:22 64.82323 -147.97273 6890 ft 265 kts 216°
2026-05-05 10:22 64.80833 -147.99828 7701 ft 267 kts 215°
2026-05-05 10:22 64.79323 -148.02431 8453 ft 271 kts 216°
2026-05-05 10:22 64.77815 -148.05142 9184 ft 275 kts 217°
2026-05-05 10:23 64.76304 -148.07928 9948 ft 277 kts 217°
2026-05-05 10:23 64.74753 -148.10793 10370 ft 292 kts 217°
2026-05-05 10:23 64.73103 -148.13813 10693 ft 309 kts 217°
2026-05-05 10:23 64.71355 -148.16990 11014 ft 326 kts 217°
2026-05-05 10:24 64.69534 -148.20289 11539 ft 335 kts 217°
2026-05-05 10:24 64.67679 -148.23648 12276 ft 339 kts 217°
2026-05-05 10:24 64.65811 -148.27028 13053 ft 341 kts 217°
2026-05-05 10:24 64.63934 -148.30422 13851 ft 342 kts 216°
2026-05-05 10:25 64.62045 -148.33829 14663 ft 344 kts 216°
2026-05-05 10:25 64.60150 -148.37238 15467 ft 345 kts 215°
2026-05-05 10:25 64.58245 -148.40658 16252 ft 347 kts 215°
2026-05-05 10:25 64.56330 -148.44090 17022 ft 348 kts 214°
2026-05-05 10:26 64.54404 -148.47537 17772 ft 350 kts 214°
2026-05-05 10:26 64.52467 -148.50996 18480 ft 352 kts 214°
2026-05-05 10:26 64.50513 -148.54479 19123 ft 356 kts 214°
2026-05-05 10:26 64.48531 -148.58007 19727 ft 360 kts 214°
2026-05-05 10:27 64.46528 -148.61563 20310 ft 365 kts 214°
2026-05-05 10:27 64.44498 -148.65163 20865 ft 369 kts 214°
2026-05-05 10:27 64.42444 -148.68798 21400 ft 374 kts 214°
2026-05-05 10:27 64.40366 -148.72470 21928 ft 378 kts 214°
2026-05-05 10:28 64.38263 -148.76176 22437 ft 382 kts 214°
2026-05-05 10:28 64.36137 -148.79917 22935 ft 386 kts 214°
2026-05-05 10:28 64.33985 -148.83694 23401 ft 390 kts 214°
2026-05-05 10:28 64.31815 -148.87498 23860 ft 394 kts 214°
2026-05-05 10:29 64.29616 -148.91342 24326 ft 398 kts 214°
2026-05-05 10:29 64.27407 -148.95199 24820 ft 399 kts 214°
2026-05-05 10:29 64.25189 -148.99062 25323 ft 400 kts 214°
2026-05-05 10:29 64.22962 -149.02932 25811 ft 401 kts 214°
2026-05-05 10:30 64.20737 -149.06791 26284 ft 401 kts 213°
2026-05-05 10:30 64.18506 -149.10651 26741 ft 402 kts 213°
2026-05-05 10:30 64.16271 -149.14512 27172 ft 402 kts 213°
2026-05-05 10:30 64.14034 -149.18363 27582 ft 403 kts 213°
2026-05-05 10:31 64.11798 -149.22201 28009 ft 402 kts 212°
2026-05-05 10:31 64.09560 -149.26039 28391 ft 401 kts 212°
2026-05-05 10:31 64.07298 -149.29780 28730 ft 401 kts 208°
2026-05-05 10:31 64.04832 -149.32683 28949 ft 399 kts 200°
2026-05-05 10:32 64.02188 -149.34492 29265 ft 396 kts 191°
2026-05-05 10:32 63.99500 -149.35785 29585 ft 396 kts 191°
2026-05-05 10:32 63.96796 -149.37038 29830 ft 396 kts 189°
2026-05-05 10:32 63.94098 -149.38271 30134 ft 395 kts 189°
2026-05-05 10:33 63.91414 -149.39510 30469 ft 394 kts 189°
2026-05-05 10:33 63.88731 -149.40757 30719 ft 394 kts 189°
2026-05-05 10:33 63.86010 -149.42027 30976 ft 393 kts 189°
2026-05-05 10:33 63.83329 -149.43275 31200 ft 394 kts 189°
2026-05-05 10:34 63.80646 -149.44518 31464 ft 393 kts 189°
2026-05-05 10:34 63.77969 -149.45749 31708 ft 393 kts 189°
2026-05-05 10:34 63.75287 -149.46979 31917 ft 393 kts 188°
2026-05-05 10:34 63.72613 -149.48208 32138 ft 392 kts 189°
2026-05-05 10:35 63.69936 -149.49437 32307 ft 393 kts 189°
2026-05-05 10:35 63.67257 -149.50664 32488 ft 393 kts 189°
2026-05-05 10:35 63.64575 -149.51889 32659 ft 393 kts 189°
2026-05-05 10:35 63.61891 -149.53112 32841 ft 393 kts 189°
2026-05-05 10:36 63.59211 -149.54331 33026 ft 393 kts 189°
2026-05-05 10:36 63.56528 -149.55549 33199 ft 393 kts 189°
2026-05-05 10:36 63.53844 -149.56765 33364 ft 393 kts 189°
2026-05-05 10:36 63.51163 -149.57977 33515 ft 394 kts 189°
2026-05-05 10:37 63.48478 -149.59189 33663 ft 394 kts 189°
2026-05-05 10:37 63.45792 -149.60399 33814 ft 394 kts 189°
2026-05-05 10:37 63.43101 -149.61610 33967 ft 394 kts 189°
2026-05-05 10:37 63.40415 -149.62815 34118 ft 394 kts 189°
2026-05-05 10:38 63.37723 -149.64020 34234 ft 395 kts 189°
2026-05-05 10:38 63.35022 -149.65228 34354 ft 396 kts 189°
2026-05-05 10:38 63.32315 -149.66436 34458 ft 397 kts 189°
2026-05-05 10:38 63.29603 -149.67644 34563 ft 398 kts 189°
2026-05-05 10:39 63.26885 -149.68852 34677 ft 399 kts 189°
2026-05-05 10:39 63.24149 -149.70066 34684 ft 402 kts 189°
2026-05-05 10:39 63.18626 -149.72509 34693 ft 406 kts 189°
2026-05-05 10:40 63.13069 -149.74958 34695 ft 408 kts 189°
2026-05-05 10:40 63.07475 -149.77414 34697 ft 406 kts 189°
2026-05-05 10:41 63.01952 -149.79829 34699 ft 404 kts 189°
2026-05-05 10:41 62.96427 -149.82234 34700 ft 405 kts 189°
2026-05-05 10:42 62.88103 -149.85842 34704 ft 408 kts 189°
2026-05-05 10:43 62.82527 -149.88248 34705 ft 409 kts 189°
2026-05-05 10:43 62.76945 -149.90646 34706 ft 409 kts 189°
2026-05-05 10:44 62.71345 -149.93043 34708 ft 411 kts 189°
2026-05-05 10:44 62.65729 -149.95437 34709 ft 412 kts 189°
2026-05-05 10:45 62.60088 -149.97834 34710 ft 414 kts 189°
2026-05-05 10:45 62.54429 -150.00228 34710 ft 415 kts 189°
2026-05-05 10:46 62.48749 -150.02621 34711 ft 417 kts 189°
2026-05-05 10:46 62.43042 -150.05017 34712 ft 419 kts 189°
2026-05-05 10:47 62.37317 -150.07411 34712 ft 419 kts 189°
2026-05-05 10:47 62.31592 -150.09786 34710 ft 419 kts 187°
2026-05-05 10:47 62.28699 -150.10210 34720 ft 416 kts 176°
2026-05-05 10:48 62.25774 -150.09765 34723 ft 416 kts 175°
2026-05-05 10:48 62.20035 -150.08662 34714 ft 417 kts 174°
2026-05-05 10:49 62.14214 -150.07486 34713 ft 417 kts 174°
2026-05-05 10:49 62.08426 -150.06402 34713 ft 417 kts 174°
2026-05-05 10:50 62.02638 -150.05301 34714 ft 417 kts 174°
2026-05-05 10:50 61.96855 -150.04192 34714 ft 417 kts 174°
2026-05-05 10:51 61.92044 -150.03282 34716 ft 417 kts 174°
2026-05-05 10:51 61.86257 -150.02192 34719 ft 417 kts 174°
2026-05-05 10:52 61.80468 -150.01101 34722 ft 417 kts 174°
2026-05-05 10:52 61.74681 -150.00016 34725 ft 417 kts 174°
2026-05-05 10:53 61.68897 -149.98936 34727 ft 417 kts 174°
2026-05-05 10:53 61.63119 -149.97861 34721 ft 416 kts 174°
2026-05-05 10:54 61.57352 -149.96793 34718 ft 416 kts 174°
2026-05-05 10:54 61.51560 -149.96388 34724 ft 417 kts 180°
2026-05-05 10:55 61.45715 -149.96607 34724 ft 417 kts 179°
2026-05-05 10:55 61.39914 -149.96442 34729 ft 417 kts 178°
2026-05-05 10:56 61.34111 -149.96277 34731 ft 418 kts 179°
2026-05-05 10:56 61.28295 -149.96224 34731 ft 418 kts 179°
2026-05-05 10:57 61.22480 -149.96119 34729 ft 418 kts 178°
2026-05-05 10:57 61.16671 -149.96606 34736 ft 420 kts 189°
2026-05-05 10:58 61.11092 -150.00385 34735 ft 424 kts 198°
2026-05-05 10:58 61.05562 -150.04743 34731 ft 426 kts 198°
2026-05-05 10:59 61.00005 -150.09071 34729 ft 427 kts 198°
2026-05-05 10:59 60.94422 -150.13342 34727 ft 429 kts 198°
2026-05-05 11:00 60.88832 -150.17642 34724 ft 429 kts 198°
2026-05-05 11:00 60.83225 -150.21939 34720 ft 430 kts 198°
2026-05-05 11:01 60.77615 -150.26209 34715 ft 430 kts 198°
2026-05-05 11:01 60.71999 -150.30474 34711 ft 431 kts 198°
2026-05-05 11:02 60.66340 -150.34757 34707 ft 431 kts 198°
2026-05-05 11:02 60.60710 -150.39000 34703 ft 431 kts 198°
2026-05-05 11:03 60.55077 -150.43229 34700 ft 431 kts 198°
2026-05-05 11:03 60.49441 -150.47445 34699 ft 432 kts 198°
2026-05-05 11:04 60.43802 -150.51648 34699 ft 432 kts 198°
2026-05-05 11:04 60.38162 -150.55836 34699 ft 432 kts 198°
2026-05-05 11:05 60.32524 -150.60008 34698 ft 432 kts 198°
2026-05-05 11:05 60.26882 -150.64167 34698 ft 432 kts 198°
2026-05-05 11:06 60.21232 -150.68316 34698 ft 432 kts 198°
2026-05-05 11:06 60.15578 -150.72453 34697 ft 433 kts 198°
2026-05-05 11:07 60.09917 -150.76580 34693 ft 433 kts 198°
2026-05-05 11:07 60.04246 -150.80699 34690 ft 433 kts 198°
2026-05-05 11:08 59.98575 -150.84803 34689 ft 434 kts 198°
2026-05-05 11:08 59.92852 -150.88929 34686 ft 435 kts 198°
2026-05-05 11:09 59.87157 -150.93021 34681 ft 435 kts 198°
2026-05-05 11:09 59.81453 -150.97104 34676 ft 436 kts 198°
2026-05-05 11:10 59.75740 -151.01179 34672 ft 436 kts 198°
2026-05-05 11:10 59.70023 -151.05241 34666 ft 436 kts 198°
2026-05-05 11:11 59.64305 -151.09290 34663 ft 437 kts 198°
2026-05-05 11:11 59.58578 -151.13330 34659 ft 437 kts 198°
2026-05-05 11:12 59.52851 -151.17355 34656 ft 437 kts 198°
2026-05-05 11:12 59.47112 -151.21374 34643 ft 438 kts 198°
2026-05-05 11:12 59.44241 -151.23380 34040 ft 435 kts 198°
2026-05-05 11:13 59.41405 -151.25359 33488 ft 429 kts 198°
2026-05-05 11:13 59.38613 -151.27303 32963 ft 423 kts 198°
2026-05-05 11:13 59.35859 -151.29217 32449 ft 417 kts 198°
2026-05-05 11:13 59.33111 -151.31120 31938 ft 425 kts 198°
2026-05-05 11:14 59.30308 -151.33057 31414 ft 425 kts 198°
2026-05-05 11:14 59.27545 -151.34970 30898 ft 417 kts 198°
2026-05-05 11:14 59.24825 -151.36850 30386 ft 411 kts 197°
2026-05-05 11:14 59.22152 -151.38693 29885 ft 405 kts 197°
2026-05-05 11:15 59.19516 -151.40505 29393 ft 399 kts 197°
2026-05-05 11:15 59.16917 -151.42288 28909 ft 393 kts 197°
2026-05-05 11:15 59.14350 -151.44047 28430 ft 389 kts 198°
2026-05-05 11:15 59.11794 -151.45794 27960 ft 396 kts 198°
2026-05-05 11:16 59.09176 -151.47580 27468 ft 396 kts 198°
2026-05-05 11:16 59.06584 -151.49350 26984 ft 391 kts 198°
2026-05-05 11:16 59.04033 -151.51091 26509 ft 387 kts 198°
2026-05-05 11:16 59.01509 -151.52808 26039 ft 382 kts 198°
2026-05-05 11:17 58.99014 -151.54502 25574 ft 378 kts 198°
2026-05-05 11:17 58.96539 -151.56179 25114 ft 377 kts 198°
2026-05-05 11:17 58.94009 -151.57888 24643 ft 387 kts 198°
2026-05-05 11:17 58.91482 -151.59596 24171 ft 383 kts 198°
2026-05-05 11:18 58.88980 -151.61286 23704 ft 379 kts 198°
2026-05-05 11:18 58.86507 -151.62955 23243 ft 374 kts 198°
2026-05-05 11:18 58.84061 -151.64601 22785 ft 370 kts 198°
2026-05-05 11:18 58.81644 -151.66224 22335 ft 366 kts 198°
2026-05-05 11:19 58.79250 -151.67829 21888 ft 362 kts 198°
2026-05-05 11:19 58.76881 -151.69416 21445 ft 358 kts 198°
2026-05-05 11:19 58.74540 -151.70981 21005 ft 354 kts 198°
2026-05-05 11:19 58.72212 -151.72536 20570 ft 357 kts 198°
2026-05-05 11:20 58.69853 -151.74108 20126 ft 358 kts 197°
2026-05-05 11:20 58.67504 -151.75672 19686 ft 355 kts 197°
2026-05-05 11:20 58.65179 -151.77220 19251 ft 353 kts 197°
2026-05-05 11:20 58.62869 -151.78755 18819 ft 350 kts 197°
2026-05-05 11:21 58.60575 -151.80276 18390 ft 347 kts 197°
2026-05-05 11:21 58.58300 -151.81782 17965 ft 345 kts 197°
2026-05-05 11:21 58.56034 -151.83281 17541 ft 343 kts 197°
2026-05-05 11:21 58.53786 -151.84766 17120 ft 341 kts 197°
2026-05-05 11:22 58.51549 -151.86241 16702 ft 339 kts 197°
2026-05-05 11:22 58.49322 -151.87708 16286 ft 337 kts 197°
2026-05-05 11:22 58.47079 -151.89183 15866 ft 336 kts 197°
2026-05-05 11:22 58.44875 -151.90629 15454 ft 335 kts 197°
2026-05-05 11:23 58.42685 -151.92065 15228 ft 329 kts 197°
2026-05-05 11:23 58.40484 -151.93506 15007 ft 338 kts 197°
2026-05-05 11:23 58.38270 -151.94956 14653 ft 335 kts 197°
2026-05-05 11:23 58.36074 -151.96393 14260 ft 333 kts 197°
2026-05-05 11:24 58.33887 -151.97822 13855 ft 332 kts 196°
2026-05-05 11:24 58.31710 -151.99240 13448 ft 331 kts 196°
2026-05-05 11:24 58.30267 -152.00178 13175 ft 330 kts 196°
2026-05-05 11:24 58.28112 -152.01580 12769 ft 324 kts 196°
2026-05-05 11:25 58.26002 -152.02953 12370 ft 317 kts 196°
2026-05-05 11:25 58.23885 -152.04323 11971 ft 327 kts 196°
2026-05-05 11:25 58.21733 -152.05714 11567 ft 323 kts 196°
2026-05-05 11:25 58.19629 -152.07079 11172 ft 315 kts 196°
2026-05-05 11:26 58.17563 -152.08417 10788 ft 317 kts 195°
2026-05-05 11:26 58.15454 -152.09774 10472 ft 318 kts 195°
2026-05-05 11:26 58.13409 -152.11096 10352 ft 302 kts 195°
2026-05-05 11:26 58.11469 -152.12352 10220 ft 286 kts 195°
2026-05-05 11:27 58.09625 -152.13541 10097 ft 276 kts 195°
2026-05-05 11:27 58.07819 -152.14696 9941 ft 273 kts 195°
2026-05-05 11:27 58.05982 -152.15864 9355 ft 282 kts 195°
2026-05-05 11:27 58.04130 -152.17048 9013 ft 276 kts 195°
2026-05-05 11:28 58.02363 -152.18190 8912 ft 261 kts 195°
2026-05-05 11:28 58.00692 -152.19266 8826 ft 246 kts 194°
2026-05-05 11:28 57.99119 -152.20274 8735 ft 232 kts 194°
2026-05-05 11:28 57.97604 -152.21237 8471 ft 227 kts 194°
2026-05-05 11:29 57.96116 -152.22180 8150 ft 225 kts 194°
2026-05-05 11:29 57.94613 -152.22873 7740 ft 221 kts 175°
2026-05-05 11:29 57.93226 -152.22048 7537 ft 204 kts 142°
2026-05-05 11:29 57.92344 -152.20013 7313 ft 203 kts 119°
2026-05-05 11:30 57.91621 -152.17682 7017 ft 206 kts 120°
2026-05-05 11:30 57.90837 -152.15470 6757 ft 202 kts 125°
2026-05-05 11:30 57.89951 -152.13421 6515 ft 202 kts 130°
2026-05-05 11:30 57.88978 -152.11525 6279 ft 201 kts 134°
2026-05-05 11:31 57.87927 -152.09791 6052 ft 201 kts 139°
2026-05-05 11:31 57.86805 -152.08229 5822 ft 201 kts 144°
2026-05-05 11:31 57.85618 -152.06849 5595 ft 201 kts 148°
2026-05-05 11:31 57.84372 -152.05661 5370 ft 201 kts 152°
2026-05-05 11:32 57.83072 -152.04668 5150 ft 203 kts 157°
2026-05-05 11:32 57.81730 -152.03885 4933 ft 202 kts 162°
2026-05-05 11:32 57.80352 -152.03316 4707 ft 203 kts 167°
2026-05-05 11:32 57.78957 -152.02971 4496 ft 203 kts 172°
2026-05-05 11:33 57.77554 -152.02918 4269 ft 199 kts 179°
2026-05-05 11:33 57.76183 -152.03202 4019 ft 194 kts 192°
2026-05-05 11:33 57.75022 -152.04405 3803 ft 192 kts 220°
2026-05-05 11:33 57.74367 -152.06602 3565 ft 198 kts 256°
2026-05-05 11:34 57.74324 -152.09166 3354 ft 195 kts 270°
2026-05-05 11:34 57.74382 -152.11630 3123 ft 187 kts 271°
2026-05-05 11:34 57.74445 -152.14029 3020 ft 184 kts 271°
2026-05-05 11:34 57.74506 -152.16507 2737 ft 193 kts 271°
2026-05-05 11:35 57.74561 -152.18941 2381 ft 185 kts 271°
2026-05-05 11:35 57.74612 -152.21303 2033 ft 175 kts 271°
2026-05-05 11:35 57.74658 -152.23500 1830 ft 164 kts 272°
2026-05-05 11:35 57.74703 -152.25635 1693 ft 167 kts 272°
2026-05-05 11:36 57.74747 -152.27801 1541 ft 165 kts 272°
2026-05-05 11:36 57.74791 -152.29945 1389 ft 167 kts 272°
2026-05-05 11:36 57.74836 -152.32171 1230 ft 170 kts 273°
2026-05-05 11:36 57.74880 -152.34356 1081 ft 167 kts 274°
2026-05-05 11:37 57.74923 -152.36525 927 ft 165 kts 274°
2026-05-05 11:37 57.74964 -152.38609 781 ft 156 kts 275°
2026-05-05 11:37 57.75003 -152.40585 651 ft 149 kts 275°
2026-05-05 11:37 57.75038 -152.42507 532 ft 146 kts 274°
2026-05-05 11:38 57.75076 -152.44401 361 ft 145 kts 273°
2026-05-05 11:38 57.75109 -152.46270 238 ft 144 kts 273°
2026-05-05 11:38 57.75147 -152.48146 112 ft 142 kts 273°
2026-05-05 11:38 57.75178 -152.49749 82 ft 86 kts 273°
2026-05-05 11:39 57.75193 -152.50522 82 ft 40 kts 272°
2026-05-05 11:39 57.75199 -152.50873 82 ft 19 kts 270°
2026-05-05 11:39 57.75214 -152.51065 82 ft 13 kts 306°
2026-05-05 11:39 57.75253 -152.51172 82 ft 7 kts 303°
2026-05-05 11:40 57.75287 -152.51230 82 ft 7 kts 332°
2026-05-05 11:40 57.75307 -152.51249 82 ft 0 kts 331°
2026-05-05 11:40 57.75319 -152.51277 82 ft 9 kts 290°
2026-05-05 11:40 57.75323 -152.51411 82 ft 11 kts 270°
2026-05-05 11:41 57.75335 -152.51552 82 ft 10 kts 295°
2026-05-05 11:41 57.75364 -152.51641 82 ft 7 kts 309°
2026-05-05 11:41 57.75387 -152.51693 82 ft 3 kts 311°
2026-05-05 11:41 57.75388 -152.51695 82 ft 0 kts 311°